Location: Mahannah Oil Field
(37.4664°N, 96.6003°W)
Time: 02:45:26
(UTC+00:00)

deb Explorer IX - Pass Details

Date: 26 January 2021
Orbit: 537 x 1102 km, 38.8° (Epoch: 01 March)

Event Time Altitude Azimuth Distance (km) Brightness Sun altitude
Rises 02:13:53 0° 277° (W) 3,588 ? -29.8°
Reaches altitude 10° 02:16:41 10° 279° (W) 2,553 ? -30.4°
Enters shadow 02:21:31 56° 290° (WNW) 954 ? -31.4°
Maximum altitude 02:22:44 81° 7° (N) 797 - -31.6°
Drops below altitude 10° 02:27:49 10° 94° (E) 2,156 - -32.6°
Sets 02:30:01 0° 96° (E) 2,992 - -33.0°
